カタログに戻る

COSMOS 89

運用中軍事LEO
NORAD 1587·PAYLOAD·🇷🇺 Russia

打ち上げ Sep 18, 1965 から Baikonur Cosmodrome

Loading…

次のパス (今後24時間)

TLE

最新Source: Space-Track

元期: Sep 14, 2026, 11:30 UTC

1 01587U 65073D   26257.47964476 -.00000087  00000-0  49322-4 0  9991
2 01587  56.0551 269.1686 0168622  67.7134 294.1551 12.38989588759926

AllMySatでCOSMOS 89をリアルタイム追跡

Download on the App Store